Miscellaneous Local Product
Issued by NWS North Platte, NE

Home | Current Version | Previous Version | Text Only | Print | Product List | Glossary On
Versions: 1 2 3 4 5 6 7 8 9 10 11 12 13 14 15 16 17 18 19 20 21 22 23 24 25 26 27 28 29 30 31 32 33 34 35 36 37 38 39 40 41 42 43 44 45 46 47 48 49 50
699
AXUS43 KLBF 252110
MISLBF


WESTERN AND NORTH CENTRAL NEBRASKA HOURLY WEATHER ROUNDUP
NATIONAL WEATHER SERVICE NORTH PLATTE NE
300 PM CST SAT FEB 25 2017

NOTE: "FAIR" INDICATES FEW OR NO CLOUDS BELOW 12,000 FEET WITH NO
SIGNIFICANT WEATHER AND/OR OBSTRUCTIONS TO VISIBILITY.

NOTE: STATIONS NOT REPORTING VARIABLES SUCH AS SKY/WEATHER OR
PRESSURE ARE PROVIDED BY RAWS AND APRS NETWORKS AND ARE NOT UNDER
NATIONAL WEATHER SERVICE QUALITY CONTROL.

...OBSERVATIONS IN AND NEAR THE EASTERN PANHANDLE OF NEBRASKA...

CITY           SKY/WX    TMP DP  RH WIND       PRES   REMARKS
PINE RIDGE     MOSUNNY   29  20  69 W16G24    29.84F WCI  17
CHADRON        MOSUNNY   29  16  58 W14       29.85F WCI  18
ALLIANCE       CLOUDY    23  14  68 W16       29.84F WCI  10
SIDNEY         CLOUDY    28  13  53 NW20      29.86F WCI  15
CRESCENT LAKE    N/A     26  11  52 NW16        N/A  WCI  14
$$

...OBSERVATIONS IN NORTHERN NEBRASKA AND FAR SOUTHERN SOUTH DAKOTA...

CITY           SKY/WX    TMP DP  RH WIND       PRES   REMARKS
WINNER         FAIR      34  22  61 W10       29.84F WCI  26
VALENTINE      SUNNY     27  17  66 W10       29.85F WCI  17
THEDFORD       SUNNY     30  19  64 W15       29.87F WCI  19
AINSWORTH      SUNNY     30  20  67 W12       29.85S WCI  20
O`NEILL        SUNNY     31  21  66 SW12      29.88F WCI  21
ORD            SUNNY     33  18  53 W16       29.89F WCI  23
BROKEN BOW     SUNNY     32  20  61 W8        29.88F WCI  25
VALENTINE NWR    N/A     29  20  70 W14         N/A  WCI  18
BUTTE            N/A     27  20  75 S9          N/A  WCI  18
HALSEY           N/A     33  16  49 W8          N/A  WCI  26
CHAMBERS         N/A     33  18  55 S10         N/A  WCI  25
EWING            N/A     30  22  72 SW16        N/A  WCI  19
$$

...OBSERVATIONS IN SOUTHWEST NEBRASKA AND FAR NORTHEAST COLORADO...

CITY           SKY/WX    TMP DP  RH WIND       PRES   REMARKS
HOLYOKE        FAIR      37  18  44 NW10G17   29.89F WCI  30
IMPERIAL       SUNNY     35  14  42 N16       29.90F WCI  25
OGALLALA       SUNNY     32  15  50 NW17      29.89F WCI  21
NORTH PLATTE   SUNNY     34  21  59 W14       29.91F WCI  25
MCCOOK         SUNNY     40  20  44 NW15      29.93F WCI  32
LEXINGTON      SUNNY     37  21  53 W15       29.91F WCI  27
STAPLETON        N/A     31  21  66 W3          N/A
GOTHENBURG       N/A     34  18  52 W12         N/A  WCI  25
CALLAWAY         N/A     32  23  69 W16         N/A  WCI  21
$$

...OBSERVATIONS IN CENTRAL LINCOLN COUNTY AREA...

CITY           SKY/WX    TMP DP  RH WIND       PRES   REMARKS
N.P. AIRPORT   SUNNY     34  21  59 W14       29.91F WCI  25
N.P. DOWNTOWN    N/A     18  11  74 W3          N/A
N.P. SOUTHEAST   N/A     33  20  59 NW7G14      N/A  WCI  27
N.P. HILLCREST   N/A     32  23  69 NW15G22     N/A  WCI  22
$$

...SOME OBSERVATIONS FROM AROUND THE REGION...

CITY           SKY/WX    TMP DP  RH WIND       PRES   REMARKS
LARAMIE        CLOUDY    19   3  49 W25G33    29.74F WCI   1
CHEYENNE       CLOUDY    25   6  44 W18G33    29.78F WCI  11
DENVER         PTSUNNY   35  -2  20 S8G20     29.80F WCI  29
AKRON          CLOUDY    32  17  54 SW5       29.86F WCI  27
SCOTTSBLUFF    CLOUDY    28  14  55 NW12      29.85F WCI  18
RAPID CITY     LGT SNOW  29  21  72 S3        29.79F
BISMARCK       CLOUDY    29  20  69 VRB6      29.79F WCI  23
PIERRE         CLOUDY    37  20  50 NW10      29.80F WCI  30
SIOUX FALLS    PTSUNNY   27  17  66 S17       29.91F WCI  14
OMAHA          PTSUNNY   32  14  47 S15       30.04F WCI  22
GRAND ISLAND   SUNNY     34  26  72 SW16      29.94F WCI  24
KANSAS CITY    MOSUNNY   39  10  30 VRB5      30.10F
WICHITA        MOSUNNY   44  15  31 SW13G20   30.09F
OKLAHOMA CITY  SUNNY     47  12  24 S8        30.12F
DALLAS         SUNNY     52  19  27 CALM      30.15F
AMARILLO       SUNNY     49  18  29 S12G26    29.98F
DODGE CITY     SUNNY     46  13  26 SW16G25   29.98F
HAYS           MOSUNNY   46  18  32 SW20G25   29.98F
GOODLAND       SUNNY     40   7  25 NW10G23   29.91F WCI  33
$$




USA.gov is the U.S. government's official web portal to all federal, state and local government web resources and services.